Time,TemperatureF,DewpointF,PressureIn,WindDirection,WindDirectionDegrees,WindSpeedMPH,WindSpeedGustMPH,Humidity,HourlyPrecipIn,Conditions,Clouds,dailyrainin,SoftwareType,DateUTC
2013-01-19 00:03:00,34.0,23.0,29.84,South,180,2.0,5.0,64,0.00,,,0.00,,2013-01-19 05:03:00,
2013-01-19 00:12:00,34.0,23.0,29.84,South,180,2.0,5.0,64,0.00,,,0.00,,2013-01-19 05:12:00,
2013-01-19 00:23:00,34.0,23.0,29.83,South,180,5.0,5.0,64,0.00,,,0.00,,2013-01-19 05:23:00,
2013-01-19 00:33:00,34.0,23.0,29.84,SSW,203,3.0,3.0,65,0.00,,,0.00,,2013-01-19 05:33:00,
2013-01-19 00:43:00,34.0,23.0,29.84,SSW,203,3.0,3.0,65,0.00,,,0.00,,2013-01-19 05:43:00,
2013-01-19 00:53:00,34.0,23.0,29.83,SSW,203,3.0,6.0,65,0.00,,,0.00,,2013-01-19 05:53:00,
2013-01-19 01:03:00,34.0,24.0,29.83,South,180,2.0,3.0,66,0.00,,,0.00,,2013-01-19 06:03:00,
2013-01-19 01:12:00,34.0,24.0,29.83,South,180,2.0,3.0,66,0.00,,,0.00,,2013-01-19 06:12:00,
2013-01-19 01:22:00,34.0,24.0,29.82,SW,225,5.0,6.0,66,0.00,,,0.00,,2013-01-19 06:22:00,
2013-01-19 01:33:00,34.0,24.0,29.82,SSW,203,6.0,8.0,66,0.00,,,0.00,,2013-01-19 06:33:00,
2013-01-19 01:43:00,34.0,24.0,29.82,SSW,203,6.0,8.0,66,0.00,,,0.00,,2013-01-19 06:43:00,
2013-01-19 01:52:00,34.0,24.0,29.81,South,180,3.0,3.0,66,0.00,,,0.00,,2013-01-19 06:52:00,
2013-01-19 02:02:00,34.0,24.0,29.81,SSW,203,1.0,0.0,67,0.00,,,0.00,,2013-01-19 07:02:00,
2013-01-19 02:12:00,34.0,24.0,29.81,SSW,203,1.0,0.0,67,0.00,,,0.00,,2013-01-19 07:12:00,
2013-01-19 02:22:00,34.0,25.0,29.81,WSW,248,1.0,0.0,68,0.00,,,0.00,,2013-01-19 07:22:00,
2013-01-19 02:33:00,34.0,25.0,29.81,SSW,203,1.0,3.0,68,0.00,,,0.00,,2013-01-19 07:33:00,
2013-01-19 02:43:00,34.0,25.0,29.81,SSW,203,1.0,3.0,68,0.00,,,0.00,,2013-01-19 07:43:00,
2013-01-19 02:53:00,34.0,25.0,29.82,SW,225,0.0,0.0,68,0.00,,,0.00,,2013-01-19 07:53:00,
2013-01-19 03:02:00,34.0,25.0,29.82,SSW,203,2.0,5.0,68,0.00,,,0.00,,2013-01-19 08:02:00,
2013-01-19 03:12:00,34.0,25.0,29.82,SSW,203,2.0,5.0,68,0.00,,,0.00,,2013-01-19 08:12:00,
2013-01-19 03:22:00,34.0,25.0,29.82,South,180,2.0,6.0,69,0.00,,,0.00,,2013-01-19 08:22:00,
2013-01-19 03:32:00,34.0,25.0,29.82,SSW,203,1.0,2.0,69,0.00,,,0.00,,2013-01-19 08:32:00,
2013-01-19 03:43:00,34.0,25.0,29.82,SSW,203,1.0,2.0,69,0.00,,,0.00,,2013-01-19 08:43:00,
2013-01-19 03:53:00,35.0,26.0,29.83,South,180,2.0,2.0,69,0.00,,,0.00,,2013-01-19 08:53:00,
2013-01-19 04:02:00,35.0,26.0,29.83,SSW,203,2.0,2.0,69,0.00,,,0.00,,2013-01-19 09:02:00,
2013-01-19 04:12:00,35.0,26.0,29.83,SSW,203,2.0,2.0,69,0.00,,,0.00,,2013-01-19 09:12:00,
2013-01-19 04:23:00,35.0,26.0,29.82,SSW,203,1.0,3.0,69,0.00,,,0.00,,2013-01-19 09:23:00,
2013-01-19 04:33:00,35.0,26.0,29.82,SSW,203,3.0,5.0,69,0.00,,,0.00,,2013-01-19 09:33:00,
2013-01-19 04:42:00,35.0,26.0,29.82,SSW,203,3.0,5.0,69,0.00,,,0.00,,2013-01-19 09:42:00,
2013-01-19 04:53:00,35.0,26.0,29.81,SSW,203,0.0,0.0,69,0.00,,,0.00,,2013-01-19 09:53:00,
2013-01-19 05:02:00,35.0,26.0,29.81,SSW,203,2.0,7.0,69,0.00,,,0.00,,2013-01-19 10:02:00,
2013-01-19 05:12:00,35.0,26.0,29.81,SSW,203,2.0,7.0,69,0.00,,,0.00,,2013-01-19 10:12:00,
2013-01-19 05:22:00,35.0,26.0,29.81,SSW,203,0.0,2.0,69,0.00,,,0.00,,2013-01-19 10:22:00,
2013-01-19 05:33:00,36.0,27.0,29.82,SW,225,3.0,6.0,70,0.00,,,0.00,,2013-01-19 10:33:00,
2013-01-19 05:43:00,36.0,27.0,29.82,SW,225,3.0,6.0,70,0.00,,,0.00,,2013-01-19 10:43:00,
2013-01-19 05:52:00,36.0,27.0,29.81,SSW,203,0.0,0.0,70,0.00,,,0.00,,2013-01-19 10:52:00,
2013-01-19 06:03:00,36.0,27.0,29.81,WSW,248,3.0,3.0,70,0.00,,,0.00,,2013-01-19 11:03:00,
2013-01-19 06:12:00,36.0,27.0,29.81,WSW,248,3.0,3.0,70,0.00,,,0.00,,2013-01-19 11:12:00,
2013-01-19 06:42:00,37.0,28.0,29.82,SW,225,0.0,0.0,70,0.00,,,0.00,,2013-01-19 11:42:00,
2013-01-19 07:48:00,37.0,28.0,29.83,South,180,2.0,3.0,71,0.00,,,0.00,,2013-01-19 12:48:00,
2013-01-19 08:03:00,37.0,29.0,29.83,SSW,203,0.0,2.0,72,0.00,,,0.00,,2013-01-19 13:03:00,
2013-01-19 08:12:00,37.0,29.0,29.83,SSW,203,0.0,2.0,72,0.00,,,0.00,,2013-01-19 13:12:00,
2013-01-19 08:22:00,37.0,29.0,29.83,WSW,248,1.0,5.0,72,0.00,,,0.00,,2013-01-19 13:22:00,
2013-01-19 08:33:00,37.0,29.0,29.83,SSW,203,0.0,0.0,72,0.00,,,0.00,,2013-01-19 13:33:00,
2013-01-19 08:43:00,37.0,29.0,29.83,SSW,203,0.0,0.0,72,0.00,,,0.00,,2013-01-19 13:43:00,
2013-01-19 08:53:00,37.0,29.0,29.84,SSW,203,0.0,0.0,72,0.00,,,0.00,,2013-01-19 13:53:00,
2013-01-19 09:03:00,37.0,29.0,29.84,SSW,203,0.0,0.0,72,0.00,,,0.00,,2013-01-19 14:03:00,
2013-01-19 09:12:00,37.0,29.0,29.84,SSW,203,0.0,0.0,72,0.00,,,0.00,,2013-01-19 14:12:00,
2013-01-19 09:23:00,37.0,29.0,29.85,SSW,203,0.0,0.0,72,0.00,,,0.00,,2013-01-19 14:23:00,
2013-01-19 09:34:00,37.0,29.0,29.85,SSW,203,0.0,0.0,72,0.00,,,0.00,,2013-01-19 14:34:00,
2013-01-19 09:43:00,37.0,29.0,29.85,SSW,203,0.0,0.0,72,0.00,,,0.00,,2013-01-19 14:43:00,
2013-01-19 09:53:00,37.0,29.0,29.86,SSW,203,0.0,0.0,72,0.00,,,0.00,,2013-01-19 14:53:00,
2013-01-19 10:03:00,37.0,29.0,29.85,SSW,203,0.0,0.0,72,0.00,,,0.00,,2013-01-19 15:03:00,
2013-01-19 10:13:00,37.0,29.0,29.85,SSW,203,0.0,0.0,72,0.00,,,0.00,,2013-01-19 15:13:00,
2013-01-19 10:23:00,37.0,29.0,29.85,SSW,203,0.0,0.0,72,0.00,,,0.00,,2013-01-19 15:23:00,
2013-01-19 10:33:00,37.0,29.0,29.85,SSW,203,0.0,0.0,72,0.00,,,0.00,,2013-01-19 15:33:00,
2013-01-19 10:43:00,37.0,29.0,29.85,SSW,203,0.0,0.0,72,0.00,,,0.00,,2013-01-19 15:43:00,
2013-01-19 10:53:00,37.0,29.0,29.85,SSW,203,0.0,0.0,72,0.00,,,0.00,,2013-01-19 15:53:00,
2013-01-19 11:03:00,37.0,29.0,29.84,SSW,203,0.0,0.0,72,0.00,,,0.00,,2013-01-19 16:03:00,
2013-01-19 11:13:00,37.0,29.0,29.84,SSW,203,0.0,0.0,72,0.00,,,0.00,,2013-01-19 16:13:00,
2013-01-19 11:23:00,37.0,29.0,29.84,SSW,203,0.0,0.0,72,0.00,,,0.00,,2013-01-19 16:23:00,
2013-01-19 11:33:00,37.0,29.0,29.84,SSW,203,0.0,0.0,72,0.00,,,0.00,,2013-01-19 16:33:00,
2013-01-19 11:43:00,37.0,29.0,29.84,SSW,203,0.0,0.0,72,0.00,,,0.00,,2013-01-19 16:43:00,
2013-01-19 11:54:00,37.0,29.0,29.83,SSW,203,0.0,0.0,72,0.00,,,0.00,,2013-01-19 16:54:00,
2013-01-19 12:03:00,37.0,29.0,29.82,SSW,203,0.0,0.0,72,0.00,,,0.00,,2013-01-19 17:03:00,
2013-01-19 12:20:00,37.0,29.0,29.82,SSW,203,0.0,0.0,72,0.00,,,0.00,,2013-01-19 17:20:00,
2013-01-19 12:48:00,37.0,29.0,29.79,SSW,203,0.0,0.0,72,0.00,,,0.00,,2013-01-19 17:48:00,
2013-01-19 12:55:00,37.0,29.0,29.77,SSW,203,0.0,0.0,72,0.00,,,0.00,,2013-01-19 17:55:00,
2013-01-19 13:12:00,37.0,29.0,29.76,SSW,203,0.0,0.0,72,0.00,,,0.00,,2013-01-19 18:12:00,
2013-01-19 13:27:00,37.0,29.0,29.74,SSW,203,0.0,0.0,72,0.00,,,0.00,,2013-01-19 18:27:00,
2013-01-19 13:35:00,37.0,29.0,29.74,SSW,203,0.0,0.0,72,0.00,,,0.00,,2013-01-19 18:35:00,
2013-01-19 13:45:00,37.0,29.0,29.74,SSW,203,0.0,0.0,72,0.00,,,0.00,,2013-01-19 18:45:00,
2013-01-19 14:02:00,37.0,29.0,29.72,SSW,203,0.0,0.0,72,0.00,,,0.00,,2013-01-19 19:02:00,
2013-01-19 14:20:00,37.0,29.0,29.71,SSW,203,0.0,0.0,72,0.00,,,0.00,,2013-01-19 19:20:00,
2013-01-19 14:30:00,37.0,29.0,29.70,SSW,203,0.0,0.0,72,0.00,,,0.00,,2013-01-19 19:30:00,
2013-01-19 14:39:00,37.0,29.0,29.70,SSW,203,0.0,0.0,72,0.00,,,0.00,,2013-01-19 19:39:00,
2013-01-19 14:47:00,37.0,29.0,29.70,SSW,203,0.0,0.0,72,0.00,,,0.00,,2013-01-19 19:47:00,
2013-01-19 14:59:00,37.0,29.0,29.69,SSW,203,0.0,0.0,72,0.00,,,0.00,,2013-01-19 19:59:00,
2013-01-19 15:10:00,37.0,29.0,29.68,SSW,203,0.0,0.0,72,0.00,,,0.00,,2013-01-19 20:10:00,
2013-01-19 15:19:00,37.0,29.0,29.68,SSW,203,0.0,0.0,72,0.00,,,0.00,,2013-01-19 20:19:00,
2013-01-19 15:25:00,37.0,29.0,29.68,SSW,203,0.0,0.0,72,0.00,,,0.00,,2013-01-19 20:25:00,
2013-01-19 15:38:00,37.0,29.0,29.67,SSW,203,0.0,0.0,72,0.00,,,0.00,,2013-01-19 20:38:00,
2013-01-19 15:48:00,37.0,29.0,29.67,SSW,203,0.0,0.0,72,0.00,,,0.00,,2013-01-19 20:48:00,
2013-01-19 15:54:00,37.0,29.0,29.68,SSW,203,0.0,0.0,72,0.00,,,0.00,,2013-01-19 20:54:00,
2013-01-19 16:07:00,32.0,24.0,29.67,SSW,203,56.0,56.0,72,0.00,,,0.00,,2013-01-19 21:07:00,
2013-01-19 16:27:00,32.0,24.0,29.66,SSW,203,56.0,56.0,72,0.00,,,0.00,,2013-01-19 21:27:00,
2013-01-19 16:44:00,32.0,24.0,29.65,SSW,203,56.0,56.0,72,0.00,,,0.00,,2013-01-19 21:44:00,
2013-01-19 16:50:00,32.0,24.0,29.65,SSW,203,56.0,56.0,72,0.00,,,0.00,,2013-01-19 21:50:00,
2013-01-19 17:00:00,32.0,24.0,29.64,SSW,203,56.0,56.0,72,0.00,,,0.00,,2013-01-19 22:00:00,
2013-01-19 17:14:00,32.0,24.0,29.63,SSW,203,56.0,56.0,72,0.00,,,0.00,,2013-01-19 22:14:00,
2013-01-19 17:27:00,32.0,24.0,29.62,SSW,203,56.0,56.0,72,0.00,,,0.00,,2013-01-19 22:27:00,
2013-01-19 17:35:00,42.0,33.0,29.57,SSW,203,2.0,5.0,69,0.00,,,0.00,,2013-01-19 22:35:00,
2013-01-19 17:58:00,42.0,33.0,29.57,South,180,3.0,7.0,69,0.00,,,0.00,,2013-01-19 22:58:00,
2013-01-19 18:13:00,42.0,33.0,29.57,SW,225,1.0,9.0,70,0.00,,,0.00,,2013-01-19 23:13:00,
2013-01-19 18:25:00,42.0,33.0,29.57,South,180,2.0,2.0,70,0.00,,,0.00,,2013-01-19 23:25:00,
2013-01-19 18:34:00,42.0,33.0,29.57,South,180,3.0,7.0,70,0.00,,,0.00,,2013-01-19 23:34:00,
2013-01-19 18:46:00,42.0,33.0,29.57,South,180,3.0,7.0,70,0.00,,,0.00,,2013-01-19 23:46:00,
2013-01-19 19:08:00,41.0,32.0,29.57,SW,225,1.0,2.0,70,0.00,,,0.00,,2013-01-20 00:08:00,
2013-01-19 19:15:00,41.0,32.0,29.58,SSW,203,1.0,3.0,70,0.00,,,0.00,,2013-01-20 00:15:00,
2013-01-19 19:25:00,40.0,31.0,29.56,South,180,5.0,6.0,71,0.00,,,0.00,,2013-01-20 00:25:00,
2013-01-19 19:35:00,40.0,32.0,29.55,SSW,203,2.0,3.0,72,0.00,,,0.00,,2013-01-20 00:35:00,
2013-01-19 19:46:00,40.0,32.0,29.55,SSW,203,2.0,3.0,72,0.00,,,0.00,,2013-01-20 00:46:00,
2013-01-19 19:57:00,40.0,32.0,29.55,South,180,2.0,7.0,72,0.00,,,0.00,,2013-01-20 00:57:00,
2013-01-19 20:04:00,40.0,32.0,29.55,South,180,0.0,2.0,72,0.00,,,0.00,,2013-01-20 01:04:00,
2013-01-19 20:20:00,40.0,32.0,29.55,South,180,0.0,2.0,72,0.00,,,0.00,,2013-01-20 01:20:00,
2013-01-19 20:27:00,40.0,32.0,29.54,SW,225,5.0,7.0,72,0.00,,,0.00,,2013-01-20 01:27:00,
2013-01-19 20:37:00,40.0,32.0,29.52,SW,225,3.0,3.0,72,0.00,,,0.00,,2013-01-20 01:37:00,
2013-01-19 20:48:00,40.0,32.0,29.52,SW,225,3.0,3.0,72,0.00,,,0.00,,2013-01-20 01:48:00,
2013-01-19 21:04:00,40.0,32.0,29.52,WSW,248,3.0,3.0,72,0.00,,,0.00,,2013-01-20 02:04:00,
2013-01-19 21:15:00,41.0,33.0,29.51,SSW,203,5.0,6.0,73,0.00,,,0.00,,2013-01-20 02:15:00,
2013-01-19 21:27:00,41.0,33.0,29.50,WSW,248,5.0,7.0,73,0.00,,,0.00,,2013-01-20 02:27:00,
2013-01-19 21:35:00,41.0,33.0,29.50,SW,225,3.0,5.0,73,0.00,,,0.00,,2013-01-20 02:35:00,
2013-01-19 21:44:00,41.0,33.0,29.50,SW,225,3.0,5.0,73,0.00,,,0.00,,2013-01-20 02:44:00,
2013-01-19 21:59:00,41.0,33.0,29.50,SW,225,7.0,9.0,74,0.00,,,0.00,,2013-01-20 02:59:00,
2013-01-19 22:08:00,41.0,34.0,29.48,SW,225,7.0,10.0,75,0.00,,,0.00,,2013-01-20 03:08:00,
2013-01-19 22:15:00,41.0,34.0,29.48,SW,225,7.0,10.0,75,0.00,,,0.00,,2013-01-20 03:15:00,
2013-01-19 22:25:00,41.0,34.0,29.47,SW,225,3.0,7.0,77,0.00,,,0.00,,2013-01-20 03:25:00,
2013-01-19 22:38:00,40.0,33.0,29.47,SW,225,1.0,2.0,77,0.00,,,0.00,,2013-01-20 03:38:00,
2013-01-19 22:45:00,40.0,33.0,29.47,SW,225,1.0,2.0,77,0.00,,,0.00,,2013-01-20 03:45:00,
2013-01-19 22:58:00,40.0,33.0,29.46,SSW,203,6.0,6.0,77,0.00,,,0.00,,2013-01-20 03:58:00,
2013-01-19 23:05:00,41.0,35.0,29.45,WSW,248,5.0,9.0,78,0.00,,,0.00,,2013-01-20 04:05:00,
2013-01-19 23:15:00,41.0,35.0,29.45,WSW,248,5.0,9.0,78,0.00,,,0.00,,2013-01-20 04:15:00,
2013-01-19 23:26:00,41.0,35.0,29.45,SSW,203,1.0,9.0,78,0.00,,,0.00,,2013-01-20 04:26:00,
2013-01-19 23:36:00,41.0,35.0,29.43,SW,225,8.0,14.0,78,0.00,,,0.00,,2013-01-20 04:36:00,
2013-01-19 23:44:00,41.0,35.0,29.43,SW,225,8.0,14.0,78,0.00,,,0.00,,2013-01-20 04:44:00,
2013-01-19 23:58:00,41.0,34.0,29.44,West,270,7.0,15.0,77,0.00,,,0.00,,2013-01-20 04:58:00,